User: anonymous   Login
Location: Mentone
(34.5413°N, 85.5351°W)
Time: 12:00:58
(UTC-05:00)
Language:

Cosmos 2150 Rocket - Orbit

View from above orbital plane
View from above orbital plane
View from above satellite
View from above satellite

Ground track
Ground track

The orbit data is extracted from the following two-line orbital elements,

1 21419U 91041B   14303.34362176  .00000374  00000-0  14299-3 0  6512
2 21419 074.0408 256.6850 0040159 056.9162 052.6753 14.33590059222768
Epoch (UTC): 30 October 2014 08:14:48
Eccentricity: 0.0040159
inclination: 74.0408°
perigee height: 751 km
apogee height: 808 km
right ascension of ascending node: 256.6850°
argument of perigee: 56.9162°
revolutions per day: 14.33590059
mean anomaly at epoch: 52.6753°
orbit number at epoch: 22276

The dashed part of the orbit path shows where the satellite is in the earth's shadow,  

DLR